Location: Dallas
(32.7833°N, 96.8000°W)
Time: 17:40:00
(UTC-05:00)

Envisat - Pass Details

Date: 22 March 2018
Orbit: 764 x 766 km, 98.1° (Epoch: 14 October)

Event Time Altitude Azimuth Distance (km) Brightness Sun altitude
Exits shadow 20:54:15 - 159° (SSE) 2,628 5.5 -16.2°
Reaches altitude 10° 20:55:06 10° 158° (SSE) 2,291 5.1 -16.4°
Maximum altitude 21:00:07 70° 76° (ENE) 812 2.9 -17.4°
Drops below altitude 10° 21:05:10 10° 353° (N) 2,305 5.7 -18.5°
Sets 21:07:29 0° 351° (N) 3,234 6.5 -18.9°
